[[{"header":{"parameterUnit":"m.s-1","parameterCategory":1,"la1":30.2991,"la2":30.254,"lo1":-89.0895,"lo2":-89.0444,"dy":0.0017,"dx":0.0017,"nx":28,"ny":28,"refTime":"2025-12-15T09:00:00:Z","depth":0,"parameterNumber":2,"parameterNumberName":"U-component_of_WINDS"},"data":[0,0,0,0,0,0,0,0,0,0,0,0,0,0,0,0,0,0,0,0,0,0,0,0,0,0,0,0,0,0,0,0,0,0,0,0,0,0,0,0,0,0,0,0,0,0,0,0,0,0,0,0,0,0,0,0,0,0,-1.8771,-1.8771,0,-1.8755,-1.8755,-1.8755,-1.8699,-1.8698,-1.8697,-1.8696,-1.8681,-1.8682,-1.8682,0,0,0,0,0,0,0,0,0,0,0,0,0,-1.8756,-1.8756,-1.8771,-1.8771,-1.8771,-1.8755,-1.8755,-1.8755,-1.87,-1.8698,-1.8696,-1.8695,-1.8681,-1.8682,-1.8682,0,0,0,0,0,0,0,0,0,0,0,0,0,-1.8753,-1.8756,-1.8771,-1.8741,-1.8738,-1.8755,-1.8755,-1.8755,-1.87,-1.8698,-1.8696,-1.8694,-1.868,-1.8681,-1.8683,-1.8727,0,0,-1.8686,-1.8687,0,0,0,0,0,0,0,0,-1.8754,-1.8754,-1.8746,-1.8743,-1.874,-1.8727,-1.8744,-1.8745,-1.87,-1.8715,-1.8696,-1.8693,-1.8698,-1.8698,-1.8699,-1.8727,-1.8726,-1.8686,-1.8687,-1.8687,-1.8688,0,0,0,0,0,0,0,-1.8754,-1.8754,-1.8765,-1.8746,-1.8742,-1.8729,-1.8727,-1.8744,-1.8717,-1.8713,-1.8709,-1.8708,-1.8696,-1.8698,-1.8698,-1.8726,-1.8686,-1.8687,-1.8688,-1.8688,-1.8791,-1.8793,0,0,0,0,0,0,-1.8758,-1.8755,-1.8765,-1.8764,-1.8742,-1.8731,-1.8728,-1.8733,-1.8717,-1.8712,-1.8709,-1.8705,-1.8697,-1.8697,-1.8697,-1.8749,-1.8687,-1.8689,-1.8689,-1.8789,-1.8791,-1.8794,0,0,0,0,0,0,-1.8758,-1.8759,-1.8766,-1.8758,-1.8758,-1.8733,-1.8739,-1.8734,-1.8736,-1.8714,-1.8709,-1.8716,-1.8695,-1.8696,-1.872,-1.8748,-1.8689,-1.869,-1.8787,-1.879,-1.8793,-1.8854,0,0,0,0,0,0,-1.8758,-1.876,-1.8776,-1.8759,-1.8759,-1.8789,-1.8741,-1.8735,-1.8737,-1.8732,-1.8719,-1.8715,-1.8694,-1.8719,-1.8722,-1.8749,-1.8691,-1.8784,-1.8788,-1.8792,-1.8849,-1.8859,-1.8867,0,0,0,0,0,-1.8757,-1.8794,-1.8777,-1.8779,-1.8779,-1.8791,-1.879,-1.8765,-1.874,-1.8757,-1.8743,-1.8715,-1.8745,-1.8722,-1.8724,-1.8752,-1.8782,-1.8787,-1.8791,-1.8846,-1.8857,-1.8867,0,0,0,0,0,0,-1.8815,-1.8791,-1.8772,-1.8804,-1.88,-1.8781,-1.8801,-1.8778,-1.8781,-1.8776,-1.8744,-1.8742,-1.8772,-1.8764,-1.8739,-1.8795,-1.8759,-1.8764,-1.8799,-1.881,-1.8818,-1.882,-1.8692,0,0,0,0,0,-1.8831,-1.8843,-1.8821,-1.8852,-1.8851,-1.8827,-1.8831,-1.8812,-1.8806,-1.8804,-1.8792,-1.8788,-1.8796,-1.8802,-1.8809,-1.8848,-1.8845,-1.8868,-1.8877,-1.8884,-1.889,-1.8911,-1.8922,-1.8809,-1.8809,-1.8809,0,0,-1.8866,-1.8854,-1.8863,-1.8863,-1.8857,-1.8871,-1.8825,-1.8841,-1.8851,-1.8806,-1.8829,-1.8821,-1.8814,-1.8847,-1.886,-1.8841,-1.892,-1.889,-1.8896,-1.8897,-1.8917,-1.8928,-1.8937,-1.8812,-1.8811,-1.8811,0,0,-1.8935,-1.8927,-1.8952,-1.8947,-1.8939,-1.8923,-1.8929,-1.8914,-1.8906,-1.8928,-1.8896,-1.8907,-1.8922,-1.8919,-1.892,-1.8989,-1.8964,-1.8992,-1.9037,-1.9059,-1.9068,-1.9075,-1.9101,-1.9111,-1.8997,-1.8997,-1.8997,0,-1.8979,-1.8996,-1.8968,-1.8986,-1.8987,-1.8947,-1.8973,-1.897,-1.8965,-1.8967,-1.8946,-1.8964,-1.8957,-1.8989,-1.9006,-1.9007,-1.9014,-1.8993,-1.9068,-1.9076,-1.9083,-1.9107,-1.9117,-1.9,-1.9,-1.9,-1.8999,0,-1.9051,-1.9064,-1.9085,-1.9081,-1.9085,-1.9107,-1.9082,-1.909,-1.9071,-1.9057,-1.9081,-1.9071,-1.9075,-1.9081,-1.9062,-1.9111,-1.91,-1.9074,-1.9037,-1.9098,-1.912,-1.9129,-1.9005,-1.9004,-1.9003,-1.9002,0,0,-1.9157,-1.9136,-1.9145,-1.9143,-1.9131,-1.9141,-1.9162,-1.9165,-1.9173,-1.9171,-1.9188,-1.9202,-1.9178,-1.9179,-1.9159,-1.9178,-1.9235,-1.915,-1.9149,-1.9167,-1.9289,-1.931,-1.9321,-1.9218,-1.922,-1.9221,-1.929,0,-1.9223,-1.9257,-1.9232,-1.927,-1.9282,-1.9245,-1.9263,-1.9258,-1.9246,-1.9256,-1.9242,-1.9253,-1.922,-1.9221,-1.9237,-1.9224,-1.9259,-1.9219,-1.9235,-1.9236,-1.9239,-1.9332,-1.9354,-1.942,-1.9299,-1.93,-1.9301,0,-1.9306,-1.9307,-1.9347,-1.9333,-1.9337,-1.9354,-1.9356,-1.9365,-1.9359,-1.9349,-1.9351,-1.9327,-1.9347,-1.9309,-1.9337,-1.9311,-1.9316,-1.931,-1.9312,-1.9314,-1.9273,-1.9338,-1.944,-1.945,-1.9314,-1.9313,-1.9312,0,-1.938,-1.9392,-1.9417,-1.9417,-1.9401,-1.9414,-1.9409,-1.9401,-1.9405,-1.9407,-1.941,-1.9414,-1.9417,-1.9421,-1.94,-1.9374,-1.9431,-1.9392,-1.9424,-1.9425,-1.9439,-1.9439,-1.9545,-1.944,-1.944,-1.944,-1.944,0,-1.9458,-1.9484,-1.9451,-1.9467,-1.9495,-1.9466,-1.9495,-1.9486,-1.9479,-1.9493,-1.9461,-1.9475,-1.9445,-1.9456,-1.9439,-1.9466,-1.9467,-1.946,-1.9456,-1.9464,-1.9465,-1.9468,-1.9463,-1.9443,-1.9442,-1.9441,-1.9441,0,-1.9547,-1.9525,-1.9551,-1.9534,-1.9531,-1.9552,-1.9539,-1.9553,-1.9539,-1.9557,-1.956,-1.9538,-1.9549,-1.9528,-1.9536,-1.9525,-1.9563,-1.955,-1.9565,-1.9562,-1.9596,-1.9594,-1.9709,-1.9723,-1.9609,-1.961,-1.9611,0,-1.9598,-1.9617,-1.9603,-1.961,-1.9606,-1.9617,-1.9622,-1.9594,-1.96,-1.9596,-1.9611,-1.962,-1.9625,-1.9646,-1.9631,-1.9638,-1.9626,-1.9666,-1.9627,-1.9635,-1.9629,-1.9628,-1.9631,-1.9675,-1.9676,-1.9677,-1.9678,0,-1.9693,-1.9681,-1.9688,-1.9692,-1.9698,-1.97,-1.9699,-1.9707,-1.9678,-1.9687,-1.9698,-1.9702,-1.9711,-1.9721,-1.9724,-1.9719,-1.9695,-1.969,-1.9699,-1.9708,-1.9716,-1.9713,-1.9588,-1.9688,-1.9687,-1.9686,-1.9686,-1.9685,-1.9765,-1.9781,-1.9774,-1.9783,-1.978,-1.978,-1.9793,-1.9781,-1.9789,-1.9794,-1.9778,-1.9793,-1.9788,-1.979,-1.9788,-1.98,-1.9782,-1.9794,-1.9797,-1.9801,-1.9807,-1.9713,-1.98,-1.98,-1.98,-1.98,-1.9799,0,-1.9859,-1.9853,-1.9861,-1.9862,-1.987,-1.9845,-1.9843,-1.9851,-1.9865,-1.9862,-1.9868,-1.9882,-1.9891,-1.9878,-1.9885,-1.9898,-1.9887,-1.9901,-1.99,-1.99,-1.9822,-1.9814,-1.9909,-1.9909,-1.9909,-1.9909,-1.9909,-1.9909,-1.9909,-1.9935,-1.9923,-1.9947,-1.994,-1.9955,-1.9956,-1.9957,-1.9955,-1.9971,-1.9979,-1.9969,-1.9962,-1.9969,-1.9977,-1.9973,-1.9978,-1.9996,-1.9988,-1.9916,-1.9905,-1.9895,-1.9888,-1.9997,-1.9997,-2.0065,-2.0066,-2.0066]},{"header":{"parameterUnit":"m.s-1","parameterCategory":1,"la1":30.2991,"la2":30.254,"lo1":-89.0895,"lo2":-89.0444,"dy":0.0017,"dx":0.0017,"nx":28,"ny":28,"refTime":"2025-12-15T09:00:00:Z","depth":0,"parameterNumber":3,"parameterNumberName":"V-component_of_WINDS"},"data":[0,0,0,0,0,0,0,0,0,0,0,0,0,0,0,0,0,0,0,0,0,0,0,0,0,0,0,0,0,0,0,0,0,0,0,0,0,0,0,0,0,0,0,0,0,0,0,0,0,0,0,0,0,0,0,0,0,0,-1.593,-1.593,0,-1.5925,-1.5925,-1.5925,-1.589,-1.589,-1.5889,-1.5888,-1.5883,-1.5884,-1.5884,0,0,0,0,0,0,0,0,0,0,0,0,0,-1.5909,-1.591,-1.593,-1.593,-1.593,-1.5925,-1.5925,-1.5925,-1.589,-1.5889,-1.5888,-1.5887,-1.5883,-1.5884,-1.5884,0,0,0,0,0,0,0,0,0,0,0,0,0,-1.5913,-1.591,-1.593,-1.5912,-1.591,-1.5925,-1.5925,-1.5925,-1.5891,-1.5889,-1.5888,-1.5887,-1.5883,-1.5884,-1.5885,-1.5916,0,0,-1.5888,-1.5888,0,0,0,0,0,0,0,0,-1.5913,-1.5914,-1.5915,-1.5913,-1.5911,-1.5907,-1.5916,-1.5922,-1.5891,-1.5898,-1.5888,-1.5886,-1.5892,-1.5892,-1.5894,-1.5916,-1.5915,-1.5888,-1.5888,-1.5889,-1.5889,0,0,0,0,0,0,0,-1.5912,-1.5914,-1.5928,-1.5915,-1.5913,-1.5904,-1.5903,-1.5917,-1.5902,-1.5897,-1.5895,-1.5895,-1.5891,-1.5893,-1.5894,-1.5915,-1.5888,-1.5889,-1.5889,-1.589,-1.5963,-1.5964,0,0,0,0,0,0,-1.5915,-1.5914,-1.5928,-1.5928,-1.5909,-1.5906,-1.5905,-1.591,-1.5902,-1.59,-1.5896,-1.5893,-1.5892,-1.5893,-1.5893,-1.593,-1.5889,-1.589,-1.589,-1.5961,-1.5963,-1.5965,0,0,0,0,0,0,-1.5914,-1.5916,-1.5928,-1.592,-1.5921,-1.5907,-1.5913,-1.591,-1.5912,-1.5901,-1.5898,-1.5901,-1.5891,-1.5892,-1.5911,-1.593,-1.589,-1.5891,-1.596,-1.5962,-1.5964,-1.6004,0,0,0,0,0,0,-1.5914,-1.5916,-1.5928,-1.592,-1.5921,-1.5946,-1.5914,-1.5911,-1.5914,-1.5911,-1.5905,-1.5903,-1.589,-1.5909,-1.5912,-1.593,-1.5892,-1.5958,-1.5961,-1.5963,-1.6001,-1.6007,-1.6013,0,0,0,0,0,-1.5913,-1.594,-1.5929,-1.5931,-1.5936,-1.5947,-1.5947,-1.5932,-1.5916,-1.5928,-1.592,-1.5903,-1.5927,-1.5912,-1.5914,-1.5933,-1.5957,-1.596,-1.5963,-1.5999,-1.6006,-1.6013,0,0,0,0,0,0,-1.595,-1.5938,-1.5926,-1.5951,-1.595,-1.5941,-1.5956,-1.5941,-1.5945,-1.5941,-1.5923,-1.5922,-1.5943,-1.594,-1.5923,-1.5963,-1.5939,-1.5943,-1.5965,-1.5972,-1.5978,-1.5979,-1.5893,0,0,0,0,0,-1.5961,-1.5971,-1.596,-1.5983,-1.5983,-1.5969,-1.5973,-1.5962,-1.596,-1.596,-1.5954,-1.5953,-1.596,-1.5966,-1.5972,-1.6,-1.5999,-1.6014,-1.602,-1.6025,-1.6029,-1.6044,-1.6051,-1.5975,-1.5975,-1.5975,0,0,-1.5984,-1.5979,-1.5986,-1.599,-1.5988,-1.5999,-1.5969,-1.5982,-1.599,-1.5962,-1.598,-1.5975,-1.5973,-1.5996,-1.6007,-1.5994,-1.6049,-1.6029,-1.6033,-1.6034,-1.6048,-1.6055,-1.6062,-1.5977,-1.5976,-1.5976,0,0,-1.6032,-1.6028,-1.6047,-1.6046,-1.6043,-1.6034,-1.6038,-1.6031,-1.6027,-1.6044,-1.6024,-1.6033,-1.6046,-1.6045,-1.6047,-1.6094,-1.6078,-1.6096,-1.6127,-1.6142,-1.6148,-1.6154,-1.6172,-1.6178,-1.6099,-1.61,-1.61,0,-1.6061,-1.6077,-1.6059,-1.6073,-1.6076,-1.605,-1.607,-1.6069,-1.6069,-1.6071,-1.6057,-1.6073,-1.6069,-1.6093,-1.6105,-1.6106,-1.6111,-1.6098,-1.6149,-1.6154,-1.6159,-1.6176,-1.6183,-1.6102,-1.6102,-1.6101,-1.6101,0,-1.6113,-1.6124,-1.614,-1.614,-1.6144,-1.6161,-1.6146,-1.6152,-1.614,-1.6132,-1.615,-1.6145,-1.615,-1.6154,-1.6142,-1.6177,-1.6169,-1.6152,-1.6128,-1.6169,-1.6185,-1.6191,-1.6105,-1.6104,-1.6104,-1.6103,0,0,-1.6186,-1.6175,-1.6182,-1.6182,-1.6177,-1.6185,-1.62,-1.6205,-1.6211,-1.6211,-1.6224,-1.6236,-1.622,-1.6221,-1.6209,-1.6222,-1.6261,-1.6204,-1.6203,-1.6216,-1.63,-1.6315,-1.6322,-1.625,-1.6251,-1.6252,-1.6301,0,-1.6233,-1.6259,-1.6243,-1.6272,-1.6283,-1.6258,-1.6272,-1.627,-1.6263,-1.6271,-1.6262,-1.6271,-1.6249,-1.625,-1.6262,-1.6254,-1.6278,-1.625,-1.6263,-1.6264,-1.6267,-1.633,-1.6346,-1.6392,-1.6307,-1.6308,-1.6309,0,-1.6292,-1.6295,-1.6325,-1.6318,-1.6321,-1.6334,-1.6337,-1.6345,-1.6342,-1.6336,-1.6338,-1.6322,-1.6337,-1.6311,-1.6332,-1.6313,-1.6317,-1.6314,-1.6316,-1.6318,-1.6291,-1.6336,-1.6406,-1.6414,-1.6318,-1.6317,-1.6316,0,-1.6344,-1.6355,-1.6375,-1.6375,-1.6367,-1.6377,-1.6374,-1.637,-1.6374,-1.6376,-1.6379,-1.6383,-1.6386,-1.639,-1.6376,-1.6358,-1.6399,-1.6371,-1.6395,-1.6396,-1.6406,-1.6406,-1.648,-1.6406,-1.6406,-1.6406,-1.6405,0,-1.64,-1.6419,-1.6398,-1.641,-1.6432,-1.6413,-1.6435,-1.6429,-1.6426,-1.6437,-1.6415,-1.6426,-1.6405,-1.6414,-1.6403,-1.6423,-1.6423,-1.642,-1.6417,-1.6423,-1.6424,-1.6427,-1.6424,-1.6407,-1.6407,-1.6407,-1.6406,0,-1.6462,-1.6449,-1.6469,-1.6459,-1.6457,-1.6474,-1.6465,-1.6477,-1.6467,-1.6481,-1.6484,-1.6469,-1.6479,-1.6464,-1.6472,-1.6464,-1.6492,-1.6483,-1.6493,-1.6491,-1.6516,-1.6515,-1.6596,-1.6607,-1.6524,-1.6525,-1.6526,0,-1.65,-1.6515,-1.6506,-1.6512,-1.6511,-1.652,-1.6524,-1.6506,-1.6511,-1.6509,-1.652,-1.6527,-1.6533,-1.6548,-1.6539,-1.6544,-1.6537,-1.6565,-1.6538,-1.6544,-1.654,-1.654,-1.6542,-1.6571,-1.6572,-1.6573,-1.6574,0,-1.6568,-1.6561,-1.6567,-1.6572,-1.6577,-1.6579,-1.658,-1.6586,-1.6567,-1.6573,-1.6583,-1.6586,-1.6594,-1.6602,-1.6605,-1.6602,-1.6585,-1.6582,-1.6588,-1.6596,-1.6602,-1.66,-1.6511,-1.6581,-1.658,-1.658,-1.6579,-1.6579,-1.6621,-1.6633,-1.663,-1.6638,-1.6636,-1.6637,-1.6648,-1.664,-1.6647,-1.6652,-1.664,-1.6652,-1.6649,-1.6652,-1.665,-1.666,-1.6648,-1.6656,-1.6658,-1.6661,-1.6666,-1.6598,-1.666,-1.666,-1.666,-1.6659,-1.6659,0,-1.669,-1.6686,-1.6694,-1.6696,-1.6702,-1.6684,-1.6684,-1.6691,-1.6702,-1.6701,-1.6706,-1.6717,-1.6724,-1.6715,-1.672,-1.673,-1.6722,-1.6732,-1.6732,-1.6732,-1.6676,-1.6671,-1.6738,-1.6738,-1.6738,-1.6738,-1.6738,-1.6738,-1.6727,-1.6747,-1.6739,-1.6758,-1.6754,-1.6766,-1.6768,-1.6769,-1.6767,-1.678,-1.6786,-1.678,-1.6776,-1.6781,-1.6787,-1.6784,-1.6788,-1.6801,-1.6796,-1.6744,-1.6736,-1.6729,-1.6724,-1.6802,-1.6802,-1.6852,-1.6852,-1.6852]}]]